EA1AML Weather Reports


Display with metric or nautical units.
time (UTC)temp
F
wind
direction
speed
MPH
gust
MPH
rain 1hr
in
rain 24hr
in
rain mn
in
humidity
%
barometer
mb
20190626034506 54 215 0.0 1.0 0.00 0.00 0.00 94 1014.2
20190626033008 55 215 0.0 1.0 0.00 0.00 0.00 94 1014.3
20190626031506 55 215 1.0 1.0 0.00 0.00 0.00 94 1014.2
20190626030006 55 215 0.0 1.0 0.00 0.00 0.00 94 1014.3
20190626024506 55 215 1.0 2.0 0.00 0.00 0.00 94 1014.4
20190626023008 56 215 0.0 1.0 0.00 0.00 0.00 94 1014.5
20190626021506 56 215 0.0 3.0 0.00 0.00 0.00 94 1014.6
20190626020010 56 215 2.0 3.0 0.00 0.00 0.00 93 1014.7
20190626014506 57 119 2.0 3.0 0.00 0.00 0.00 94 1014.7
20190626013008 57 176 1.0 3.0 0.00 0.00 0.00 94 1014.7
20190626011505 57 182 0.0 1.0 0.00 0.00 0.00 94 1014.9
20190626010006 58 182 0.0 3.0 0.00 0.00 0.00 94 1015.0
20190626004505 57 184 2.0 3.0 0.00 0.00 0.00 93 1015.4
20190626003006 58 160 1.0 3.0 0.00 0.00 0.00 92 1015.4
20190626001506 58 91 0.0 6.0 0.00 0.00 0.00 92 1015.2
20190626000006 59 89 1.0 2.0 0.00 0.00 0.00 92 1015.3
20190625234506 59 89 0.0 2.0 0.00 0.00 0.00 91 1015.5
20190625233007 60 89 1.0 3.0 0.00 0.00 0.00 91 1015.6
20190625231505 59 89 2.0 3.0 0.00 0.00 0.00 91 1015.7
20190625230006 60 101 1.0 2.0 0.00 0.00 0.00 90 1015.8
20190625224505 60 101 1.0 3.0 0.00 0.00 0.00 90 1016.0
20190625223006 60 31 2.0 3.0 0.00 0.00 0.00 90 1015.8
20190625221505 60 65 0.0 3.0 0.00 0.00 0.00 90 1016.2
20190625220008 61 55 2.0 3.0 0.00 0.09 0.00 89 1016.0
20190625214505 62 73 2.0 3.0 0.00 0.09 0.00 89 1016.2
20190625213006 62 84 3.0 5.0 0.00 0.09 0.00 88 1016.0
20190625211506 62 273 1.0 2.0 0.00 0.09 0.00 87 1016.2
20190625210006 63 273 0.0 1.0 0.00 0.09 0.00 88 1015.9
20190625204505 63 273 0.0 3.0 0.00 0.09 0.00 86 1015.8
20190625203005 64 273 2.0 3.0 0.00 0.09 0.00 85 1015.5
20190625201505 65 273 2.0 3.0 0.00 0.09 0.00 85 1015.2
20190625200005 66 273 2.0 3.0 0.00 0.09 0.00 84 1015.2
20190625194506 66 275 1.0 3.0 0.00 0.09 0.00 81 1015.4
20190625193005 67 275 1.0 3.0 0.00 0.09 0.00 82 1015.5
20190625191506 67 275 2.0 7.0 0.00 0.09 0.00 82 1015.5
20190625190006 69 270 3.0 6.0 0.00 0.09 0.00 76 1015.5
20190625184505 70 274 1.0 2.0 0.00 0.09 0.00 75 1015.7
20190625183012 69 274 1.0 3.0 0.00 0.09 0.00 76 1015.5
20190625181505 69 255 2.0 3.0 0.00 0.09 0.00 76 1015.7
20190625180006 68 200 0.0 3.0 0.00 0.09 0.00 80 1015.7
20190625174506 67 195 2.0 3.0 0.00 0.09 0.00 81 1016.0
20190625173011 67 203 1.0 3.0 0.00 0.09 0.00 81 1016.0
20190625171506 67 192 2.0 6.0 0.00 0.09 0.00 80 1015.9
20190625170006 66 204 2.0 7.0 0.00 0.09 0.00 81 1015.9
20190625164505 66 228 3.0 7.0 0.00 0.09 0.00 80 1016.1
20190625163011 67 213 4.0 7.0 0.00 0.09 0.00 80 1016.2
20190625161506 68 195 3.0 5.0 0.00 0.09 0.00 79 1016.2
20190625160007 67 247 2.0 7.0 0.00 0.09 0.00 77 1016.2
20190625154505 68 235 2.0 3.0 0.00 0.09 0.00 77 1016.0
20190625153011 68 213 2.0 6.0 0.00 0.09 0.00 78 1016.2
20190625151506 68 206 3.0 9.0 0.00 0.09 0.00 77 1016.3
20190625150006 68 338 2.0 6.0 0.00 0.09 0.00 73 1016.3
20190625144506 69 206 4.0 6.0 0.00 0.09 0.00 74 1016.3
20190625143011 68 227 5.0 7.0 0.00 0.09 0.00 75 1016.3
20190625141506 69 110 2.0 3.0 0.00 0.09 0.00 75 1016.4
20190625140006 68 241 1.0 7.0 0.00 0.09 0.00 75 1016.4
20190625134506 68 297 2.0 8.0 0.00 0.09 0.00 75 1016.5
20190625133011 67 278 3.0 7.0 0.00 0.09 0.00 77 1016.7
20190625131506 67 277 2.0 6.0 0.00 0.10 0.00 78 1016.7
20190625130006 66 218 3.0 5.0 0.00 0.10 0.00 79 1016.7
20190625124506 66 264 2.0 7.0 0.00 0.10 0.00 79 1016.9
20190625123010 65 302 2.0 6.0 0.00 0.11 0.00 80 1016.9
20190625121506 65 308 2.0 7.0 0.00 0.12 0.00 81 1016.8
20190625120006 64 289 6.0 8.0 0.00 0.12 0.00 81 1017.2
20190625114506 64 338 3.0 6.0 0.00 0.13 0.00 80 1016.8
20190625113009 64 86 4.0 7.0 0.00 0.13 0.00 80 1016.7
20190625111505 64 193 2.0 3.0 0.00 0.14 0.00 80 1017.2
20190625110006 64 189 2.0 3.0 0.00 0.14 0.00 81 1017.1
20190625104505 64 188 2.0 3.0 0.00 0.14 0.00 80 1017.0
20190625103010 63 187 1.0 3.0 0.00 0.15 0.00 81 1016.9
20190625101505 63 187 1.0 5.0 0.00 0.15 0.00 81 1016.7
20190625100006 63 195 2.0 6.0 0.00 0.15 0.00 82 1016.9
20190625094505 62 236 1.0 3.0 0.00 0.16 0.00 81 1016.8
20190625093011 61 254 1.0 5.0 0.00 0.16 0.00 82 1016.8
20190625091512 61 227 2.0 3.0 0.00 0.16 0.00 82 1016.6
20190625090006 61 200 1.0 3.0 0.00 0.16 0.00 82 1016.6
20190625084505 60 205 1.0 2.0 0.00 0.16 0.00 81 1016.5
20190625083010 60 205 1.0 2.0 0.00 0.16 0.00 83 1016.8
20190625081506 59 205 0.0 3.0 0.00 0.16 0.00 85 1016.8
20190625080005 59 205 2.0 5.0 0.00 0.16 0.00 86 1016.9
20190625074505 59 174 1.0 3.0 0.00 0.16 0.00 84 1016.7
20190625073010 59 174 1.0 3.0 0.00 0.16 0.00 84 1016.7
20190625071505 58 174 0.0 2.0 0.00 0.16 0.00 85 1016.7
20190625070006 56 174 0.0 1.0 0.00 0.16 0.00 88 1016.7
20190625064505 54 174 0.0 2.0 0.00 0.16 0.00 90 1016.6
20190625063008 54 174 1.0 3.0 0.00 0.16 0.00 89 1016.6
20190625061506 56 94 1.0 3.0 0.00 0.16 0.00 86 1016.4
20190625060005 55 64 0.0 2.0 0.00 0.17 0.00 89 1016.5
20190625054505 53 63 1.0 3.0 0.00 0.17 0.00 91 1016.4
20190625053009 52 51 2.0 3.0 0.00 0.17 0.00 92 1016.3
20190625051506 52 12 1.0 2.0 0.00 0.17 0.00 92 1016.3
20190625050006 52 12 1.0 3.0 0.00 0.17 0.00 92 1016.3
20190625044506 52 11 1.0 2.0 0.00 0.17 0.00 92 1016.2
20190625043008 53 11 1.0 2.0 0.00 0.17 0.00 92 1016.0
20190625041505 53 11 1.0 1.0 0.00 0.17 0.00 92 1015.9
20190625040005 54 11 0.0 2.0 0.00 0.17 0.00 92 1015.8